Date,TemperatureHighF,TemperatureAvgF,TemperatureLowF,DewpointHighF,DewpointAvgF,DewpointLowF,HumidityHigh,HumidityAvg,HumidityLow,PressureMaxIn,PressureMinIn,WindSpeedMaxMPH,WindSpeedAvgMPH,GustSpeedMaxMPH,PrecipitationSumIn
2013-2-1,30,22,13,19,10,2,77,60,43,0.00,40.00,11,4,24,0.05
2013-2-2,43,32,22,34,25,15,90,75,46,0.00,40.00,12,4,20,0.03
2013-2-3,44,36,25,32,27,22,95,71,46,0.00,40.00,13,6,23,0.01
2013-2-4,56,40,25,38,29,22,92,68,27,0.00,40.00,10,5,19,0.01
2013-2-5,61,49,34,41,37,30,87,66,31,0.00,40.00,9,5,17,0.00
2013-2-6,55,41,28,34,31,27,99,69,35,0.00,40.00,6,3,11,0.00
2013-2-7,71,53,39,47,38,30,79,60,39,0.00,40.00,7,3,16,0.00
2013-2-8,54,41,34,51,35,27,99,80,68,0.00,40.00,13,10,26,0.33
2013-2-9,54,41,32,30,28,25,79,60,36,0.00,40.00,9,6,15,0.03
2013-2-10,61,52,44,55,44,28,98,75,43,0.00,40.00,9,6,25,0.40
2013-2-11,58,48,32,55,33,23,92,60,30,0.00,40.00,10,7,20,0.29
2013-2-12,51,40,26,33,28,25,98,68,41,0.00,40.00,8,4,14,0.00
2013-2-13,44,38,32,36,34,30,99,85,57,0.00,40.00,10,5,18,0.23
2013-2-14,62,44,33,37,35,33,99,73,35,0.00,40.00,10,5,19,0.01
2013-2-15,50,39,29,35,29,18,95,69,42,0.00,40.00,11,5,23,0.00
2013-2-16,38,28,18,22,15,6,94,63,27,0.00,40.00,13,5,24,0.00
2013-2-17,47,32,16,21,15,11,89,54,27,0.00,40.00,7,3,13,0.00
2013-2-18,64,49,33,46,31,16,96,54,26,0.00,40.00,14,7,32,0.52
2013-2-19,49,40,28,47,26,15,96,60,30,0.00,40.00,14,8,26,0.54
2013-2-20,34,27,20,19,15,12,85,61,45,0.00,40.00,9,5,15,0.00
2013-2-21,40,32,25,39,24,17,98,72,42,0.00,40.00,13,7,24,0.72
2013-2-22,58,45,35,45,39,33,100,82,50,0.00,40.00,10,6,20,0.45
2013-2-23,49,38,28,34,28,25,95,71,41,0.00,40.00,7,4,15,0.00
2013-2-24,53,36,22,27,25,21,96,67,35,0.00,40.00,8,4,16,0.00
2013-2-25,61,48,34,40,28,24,70,48,29,0.00,40.00,13,8,26,0.00
2013-2-26,55,47,39,50,43,35,100,87,55,0.00,40.00,11,7,26,0.82
2013-2-27,40,38,37,35,31,28,87,78,70,0.00,40.00,12,10,23,0.02
2013-2-28,39,35,33,32,29,25,93,76,64,0.00,40.00,9,6,18,0.02